Home   Weather   Bournemouth   Past weeks
Flag for United Kingdom

Past Weather in Bournemouth, England, United Kingdom — Yesterday and Last 2 Weeks

Now
54 °F

Passing clouds.


Feels Like: 50 °F
Forecast: 53 / 43 °F
Wind: 13 mph from Northeast

Location: Bournemouth Airport

Current Time: Mar 25, 2019 at 12:16:44 pm

Latest Report: Mar 25, 2019 at 11:50 am


Visibility: N/A

Pressure: 30.51 "Hg

Humidity: 51%

Dew Point: 36 °F

Location of BournemouthLocation

Past Weather in Bournemouth — Graph

°F

Bournemouth Temperature Yesterday

Maximum temperature yesterday: 57 °F (at 1:20 pm)
Minimum temperature yesterday: 36 °F (at 7:20 am)
Average temperature yesterday: 49 °F

High & Low Weather Summary for the Past Weeks

 TemperatureHumidityPressure
High57 °F (Mar 14, 11:50 am)100% (Mar 12, 11:20 am)30.54 "Hg (Mar 12, 11:20 am)
Low34 °F (Mar 19, 5:50 am)40% (Mar 10, 3:20 pm)29.45 "Hg (Mar 16, 6:50 pm)
Average49 °F78%30.14 "Hg
* Reported Mar 10 11:20 am — Mar 25 10:50 am, Bournemouth. Weather by CustomWeather, © 2019

Note: Actual official high and low records may vary slightly from our data, if they occured in-between our weather recording intervals... More about our weather records

Advertising

Bournemouth Weather History for the Previous 24 Hours

Scroll right to see more
 ConditionsComfort  
Time TempWeatherWind HumidityBarometerVisibility
10:50 am
Mon, Mar 25
52 °FScattered clouds.15 mph54%30.51 "HgN/A
10:20 am52 °FScattered clouds.15 mph54%30.51 "HgN/A
9:50 am50 °FPassing clouds.16 mph58%30.51 "HgN/A
9:20 am48 °FPassing clouds.16 mph58%30.51 "HgN/A
8:50 am48 °FPassing clouds.17 mph62%30.48 "HgN/A
8:20 am46 °FPassing clouds.16 mph66%30.48 "HgN/A
7:50 am46 °FPassing clouds.12 mph66%30.48 "HgN/A
7:20 am45 °FPassing clouds.9 mph76%30.45 "HgN/A
6:50 am43 °FPassing clouds.9 mph81%30.45 "HgN/A
6:20 am41 °FPassing clouds.6 mph87%30.45 "HgN/A
5:50 am43 °FPassing clouds.6 mph87%30.45 "HgN/A
10:20 pm
Sun, Mar 24
39 °FClear.8 mph81%30.42 "Hg10 mi
9:50 pm39 °FClear.7 mph81%30.45 "Hg10 mi
9:20 pm39 °FClear.9 mph81%30.45 "Hg10 mi
8:50 pm43 °FClear.9 mph76%30.45 "Hg10 mi
8:20 pm45 °FClear.12 mph76%30.45 "Hg10 mi
7:50 pm46 °FClear.12 mph66%30.42 "Hg10 mi
7:20 pm46 °FClear.12 mph66%30.42 "Hg10 mi
6:50 pm48 °FClear.12 mph62%30.42 "Hg10 mi
6:20 pm48 °FSunny.14 mph62%30.42 "Hg10 mi
5:50 pm50 °FSunny.15 mph58%30.42 "Hg10 mi
5:20 pm52 °FSunny.13 mph58%30.39 "Hg10 mi
4:50 pm54 °FPassing clouds.15 mph54%30.39 "HgN/A
4:20 pm55 °FPassing clouds.16 mph51%30.39 "HgN/A
3:50 pm55 °FPassing clouds.16 mph47%30.39 "HgN/A
3:20 pm55 °FPassing clouds.15 mph51%30.42 "HgN/A
2:50 pm57 °FPassing clouds.12 mph48%30.42 "HgN/A
2:20 pm57 °FPassing clouds.12 mph51%30.42 "HgN/A
1:50 pm57 °FPassing clouds.12 mph48%30.42 "HgN/A
1:20 pm57 °FPassing clouds.12 mph48%30.42 "HgN/A
12:50 pm55 °FPassing clouds.12 mph51%30.45 "HgN/A
12:20 pm55 °FPassing clouds.9 mph51%30.45 "HgN/A
Weather by CustomWeather, © 2019

See weather overview